EHI
4 4 5 6 7 6 4 4 4 4 3 2 2 1 0 0 0 0 0 0 0 0 0 0 0 0 0 0 0 0 0 0 0 0 0 0 0 0 0 0 0 0 0
5 5 7 9 9 8 6 4 4 5 4 3 2 1 0 0 0 0 0 0 0 0 0 0 0 0 0 0 0 0 0 0 0 0 0 0 0 0 0 0 0 0 0
7 8 9 11 10 8 6 4 4 5 4 3 2 1 0 0 0 0 0 0 0 0 0 0 0 0 0 0 0 0 0 0 0 0 0 0 0 0 0 0 0 0 0
9 9 10 11 9 7 5 4 4 4 4 2 1 0 0 0 0 0 0 0 0 0 0 0 0 0 0 0 0 0 0 0 0 0 0 0 0 0 0 0 0 0 0
9 9 9 10 9 7 6 6 5 4 3 2 1 0 0 0 0 0 0 0 0 0 0 0 0 0 0 0 0 0 0 0 0 1 1 1 1 1 0 0 0 0 0
8 8 9 10 10 9 9 7 5 3 3 3 2 1 1 1 0 0 0 0 0 0 0 0 0 0 0 0 0 0 0 0 1 2 2 2 2 2 1 1 0 0 0
7 7 9 11 11 11 10 8 5 4 4 4 4 4 3 2 1 0 0 0 0 0 0 0 0 0 0 0 0 0 0 1 2 3 3 3 3 3 3 2 1 0 0
6 6 7 10 11 11 11 9 6 5 5 7 7 6 5 4 2 1 1 1 0 0 0 0 0 0 0 0 0 0 0 1 3 3 3 3 3 3 3 3 2 1 1
6 6 6 8 10 10 10 9 7 7 7 8 8 7 5 4 3 3 2 2 1 0 0 0 0 0 0 0 0 0 1 2 3 3 3 3 3 3 3 3 3 3 2
8 8 7 6 7 7 7 7 7 7 6 7 7 7 5 4 4 4 3 2 1 0 0 0 0 0 0 0 0 1 1 3 3 3 3 3 2 2 2 2 2 3 3
7 8 6 4 4 4 4 4 5 5 5 5 6 6 5 4 5 5 4 2 0 0 0 1 1 0 0 0 1 2 3 3 3 3 2 1 1 1 0 1 1 1 2
5 5 5 4 3 2 2 3 3 3 3 3 4 4 4 4 4 6 5 3 1 0 1 2 2 1 0 1 2 3 3 3 2 1 1 0 0 0 0 0 0 0 1
5 4 4 5 5 3 2 3 3 2 1 1 3 4 4 3 4 5 5 3 1 1 2 3 3 2 2 2 3 3 2 2 1 0 0 0 0 0 0 0 0 0 0
5 4 3 5 5 4 3 3 2 1 0 1 3 3 3 2 3 3 3 2 1 2 3 3 3 4 3 3 2 1 1 1 0 0 0 0 0 0 0 0 0 0 0
6 5 4 4 4 4 4 3 2 1 0 1 2 2 1 1 1 1 1 2 3 4 5 4 3 4 4 2 1 0 0 0 0 0 0 0 0 0 0 0 0 0 0
8 6 4 5 5 4 4 4 3 1 1 1 2 1 1 1 1 2 2 4 6 6 5 4 3 2 1 1 0 0 0 0 0 0 0 0 0 0 0 0 0 0 0
8 6 5 5 5 4 3 4 3 3 3 4 4 3 3 3 3 4 5 6 6 5 4 2 2 1 0 0 0 0 0 0 0 0 0 0 0 0 0 0 0 0 0
6 5 4 5 5 4 3 3 4 5 6 7 7 6 4 4 4 6 6 6 4 3 2 2 2 2 1 0 0 0 0 0 0 0 0 0 0 0 0 0 0 0 0
4 5 6 6 6 5 4 3 4 6 7 8 8 7 5 4 4 5 5 4 3 1 1 1 2 2 1 0 0 0 0 0 0 0 0 0 0 0 0 0 0 0 0
5 7 8 8 7 5 4 3 3 5 7 8 8 7 6 5 4 4 3 3 2 1 0 1 1 1 0 0 0 0 0 0 0 0 0 0 0 0 0 0 0 0 0
7 8 8 7 5 4 3 2 2 4 6 8 8 7 5 4 3 3 3 3 2 1 0 0 0 0 0 0 0 0 0 0 0 0 0 0 0 0 0 0 0 0 0
6 6 4 3 3 1 1 1 1 3 7 9 8 5 4 3 3 3 2 1 1 0 0 0 0 0 0 0 0 0 0 0 0 0 0 0 0 0 0 0 0 0 0
5 3 1 1 1 0 0 1 2 4 6 8 7 4 3 3 3 2 1 1 0 0 0 0 0 0 0 0 0 0 0 0 0 0 0 0 0 0 0 0 0 0 0
3 2 0 0 1 1 1 1 2 3 5 6 5 3 2 2 1 1 1 1 0 0 0 0 0 0 0 0 0 0 0 0 0 0 0 0 0 0 0 0 0 0 0
1 1 1 1 2 2 1 1 1 3 3 4 3 1 1 1 0 0 0 0 0 0 0 0 0 0 0 0 0 0 0 0 0 0 0 0 0 0 0 0 0 0 0
0 1 2 2 2 2 1 0 1 2 3 3 1 0 0 0 0 0 0 0 0 0 0 0 0 0 0 0 0 0 0 0 0 0 0 0 0 0 0 0 0 0 0
Wind_Speed
3 3 3 3 2 1 1 1 1 1 1 1 1 0 0 1 1 1 1 1 1 1 1 1 1 1 1 0 1 1 1 1 1 1 1 1 1 0 0 0 0 0 1
3 3 3 3 2 2 2 1 1 1 1 1 1 1 1 0 0 1 2 2 2 1 0 0 0 0 0 1 1 1 1 0 1 1 1 2 2 2 1 0 0 1 1
7 5 4 4 3 3 3 3 2 1 1 1 1 1 1 1 1 2 2 2 2 2 1 1 0 0 1 0 0 1 2 1 0 1 2 2 1 2 2 1 1 1 1
7 6 5 5 5 4 3 3 2 1 1 2 2 2 2 1 0 0 1 2 2 2 2 1 1 1 1 0 0 1 1 2 1 0 0 1 2 1 1 2 1 2 1
7 7 7 7 5 4 4 3 2 1 1 2 2 2 1 0 0 1 2 2 2 2 2 1 1 1 0 0 0 1 1 1 1 1 1 1 1 1 1 2 2 2 2
7 6 5 5 4 3 3 3 2 1 1 2 2 2 2 1 1 1 2 2 2 2 2 2 1 1 0 0 0 0 1 1 1 1 1 1 1 1 1 2 2 2 2
6 5 5 5 4 4 4 4 4 3 2 2 2 2 2 2 1 1 0 1 1 2 2 2 1 1 0 0 0 0 1 1 1 1 1 1 1 1 1 1 1 1 2
5 6 5 5 4 5 4 4 4 3 2 2 2 2 2 1 1 1 1 1 1 1 2 1 1 1 1 1 0 0 1 1 1 1 1 1 1 1 2 2 2 1 1
5 5 4 4 4 4 5 5 5 3 3 2 2 1 1 1 1 1 1 1 1 1 1 1 1 1 1 1 0 0 1 0 0 1 1 1 1 1 1 2 2 2 1
4 4 4 4 3 3 3 4 4 4 3 2 2 1 1 1 1 0 1 1 1 1 1 1 1 1 1 1 1 1 1 1 0 0 0 1 1 1 1 1 1 2 2
4 4 3 3 3 2 3 3 3 3 2 2 1 1 0 0 0 0 1 1 1 0 0 0 1 1 2 2 1 1 1 0 1 1 0 1 1 1 1 1 1 1 2
3 3 3 3 3 3 3 3 3 3 2 2 1 1 0 0 0 1 1 1 1 1 1 0 1 1 2 2 1 1 1 0 1 1 1 1 1 1 0 0 1 1 1
3 2 2 2 3 3 3 3 3 3 3 3 2 1 0 0 1 2 2 1 1 1 1 1 1 1 1 1 1 1 1 1 1 1 1 1 1 1 1 0 1 1 1
3 3 2 2 2 3 3 3 3 3 3 3 2 1 0 1 1 2 1 1 1 0 1 0 1 1 1 1 1 1 1 1 2 2 1 1 1 2 1 1 1 1 1
3 3 3 2 2 2 2 3 3 2 3 3 2 2 1 1 1 2 2 1 1 1 1 1 1 1 1 1 1 1 1 1 2 3 2 2 1 1 0 0 0 0 0
3 3 3 3 3 3 3 3 2 2 2 3 2 2 1 1 1 1 1 1 1 1 1 1 1 1 1 3 2 2 1 1 2 3 3 2 2 3 3 2 1 1 1
4 4 4 4 4 4 4 4 3 2 2 2 1 1 1 1 1 1 0 0 1 1 1 1 1 1 2 3 3 2 1 1 1 1 2 2 3 3 2 3 3 2 1
4 4 4 4 3 3 3 3 3 3 3 2 2 1 1 1 1 0 0 0 0 0 0 1 1 1 2 3 3 3 2 1 1 1 1 2 3 3 2 2 2 3 3
4 4 4 4 3 3 3 3 3 2 2 2 2 2 1 1 1 0 1 0 0 0 1 1 1 1 2 3 3 2 1 1 2 2 2 1 2 3 3 1 1 3 3
3 3 3 3 3 2 3 4 3 2 3 3 3 2 2 2 1 1 1 1 1 1 1 1 1 1 1 2 2 1 1 1 1 2 2 3 2 3 2 1 1 2 3
3 4 4 3 2 2 4 3 3 3 3 2 2 2 2 2 2 1 1 1 1 0 1 1 1 1 1 2 2 1 1 1 1 1 2 2 3 3 3 2 2 3 3
3 5 4 3 2 3 4 3 3 3 2 2 2 2 1 1 1 1 1 1 1 1 1 1 1 1 1 2 2 2 1 1 1 1 2 2 4 4 4 3 3 4 3
4 4 4 3 2 2 3 4 3 2 2 2 2 2 1 1 1 1 1 1 1 1 1 1 1 2 1 1 2 2 2 1 1 2 2 3 4 4 3 3 4 3 1
3 3 4 4 2 2 2 3 2 2 3 2 1 1 1 0 0 1 1 1 2 2 2 2 2 2 2 2 1 1 1 1 1 1 2 3 3 3 3 3 3 2 1
3 3 4 4 3 2 2 2 2 3 2 2 1 1 1 1 1 1 1 2 3 4 4 3 3 3 3 4 4 2 2 1 1 0 1 2 2 3 3 3 3 2 1
3 3 3 3 3 2 2 2 2 3 3 2 2 2 1 1 1 1 2 2 2 3 4 5 4 3 4 4 4 3 2 1 1 1 0 1 2 2 3 3 3 3 2
Wind_Direction
203 182 173 157 145 141 141 155 149 118 104 91 94 191 292 323 358 11 21 12 1 17 55 36 9 45 77 79 101 94 79 51 50 70 22 2 337 0 340 279 120 273 256
186 183 172 166 170 182 187 177 187 156 142 152 191 178 167 182 329 353 18 19 11 3 40 69 326 93 121 66 82 104 90 49 67 106 90 7 345 333 328 295 208 266 261
193 192 186 186 184 196 196 195 201 192 183 158 110 94 73 47 27 14 11 6 8 5 14 30 68 77 130 156 175 147 146 158 50 95 131 140 237 306 324 306 306 303 253
188 191 190 192 197 203 193 187 182 181 168 137 117 128 122 123 241 327 3 358 11 7 360 15 53 76 85 113 235 128 151 151 160 132 77 159 156 170 316 328 338 327 299
189 194 196 197 196 190 184 181 169 171 156 145 147 131 114 144 77 50 35 14 5 5 5 7 36 46 44 30 341 112 135 155 162 159 151 128 98 121 197 287 326 338 322
189 194 191 181 180 177 175 165 163 187 175 158 151 151 151 136 83 38 17 2 354 355 3 7 28 37 29 327 271 184 155 162 155 154 146 151 153 183 193 228 278 301 301
182 182 182 177 178 179 178 170 171 192 193 169 168 178 178 168 168 185 303 344 342 335 333 349 355 6 336 311 291 142 193 193 177 180 189 180 183 174 179 186 241 272 294
180 180 183 179 182 184 179 174 179 192 186 180 191 190 182 179 200 209 223 247 262 283 310 332 342 337 340 338 21 345 257 213 197 186 188 193 214 192 189 186 189 255 296
170 174 172 171 175 181 183 180 178 184 184 185 179 177 185 186 216 233 232 255 275 314 350 4 8 2 8 355 46 352 300 211 209 208 209 224 243 220 213 202 183 182 249
159 164 169 168 173 180 178 166 168 179 178 162 167 157 170 188 211 209 285 296 315 349 27 17 359 353 0 7 35 31 358 44 343 244 228 293 291 268 226 204 202 196 200
169 168 165 161 162 150 145 154 158 154 146 146 152 141 142 157 139 225 294 309 313 314 349 312 348 0 6 11 22 354 359 3 335 321 251 283 274 264 253 205 196 204 193
156 155 149 137 137 149 151 154 153 148 150 142 135 151 173 18 8 318 310 311 286 284 279 331 34 20 14 11 25 340 351 347 332 321 333 315 294 276 269 224 239 233 211
128 123 128 138 151 157 148 145 147 146 134 123 120 102 33 2 308 300 307 319 293 316 355 41 38 15 6 14 4 321 339 344 312 314 309 303 305 309 318 289 272 275 270
158 153 153 156 163 163 156 152 152 145 135 126 127 136 252 288 283 288 300 305 268 291 328 348 2 355 19 21 12 9 9 355 328 314 301 295 280 271 267 275 272 281 311
177 177 176 178 172 160 156 153 156 154 146 142 161 205 223 240 282 294 296 305 338 354 357 45 27 7 27 17 23 28 31 14 348 341 332 326 346 2 346 310 237 201 229
203 193 183 179 181 181 172 159 162 161 148 164 190 207 214 223 246 258 274 327 354 350 30 46 37 25 17 23 39 56 33 18 2 348 343 347 7 10 12 14 24 105 173
209 199 193 190 192 190 177 175 176 159 151 173 200 201 196 219 252 258 297 316 327 26 41 23 37 18 358 16 22 39 52 31 9 351 346 1 12 14 6 5 6 355 341
205 200 191 188 189 178 172 171 161 157 163 174 197 202 196 216 235 209 252 286 356 40 16 13 352 346 349 10 27 35 60 48 360 338 336 350 344 353 0 3 3 343 331
195 188 181 176 164 161 163 150 153 156 164 186 195 200 188 187 176 189 246 245 163 216 253 211 236 291 323 2 23 44 75 43 349 346 359 350 330 340 1 32 1 339 328
157 159 148 133 138 155 151 146 164 169 199 211 212 200 177 176 194 215 235 228 195 226 261 284 254 246 291 336 2 47 107 52 348 348 343 342 335 341 359 1 306 307 307
142 139 134 140 159 155 146 154 175 208 219 204 190 184 182 189 195 202 220 213 210 236 281 290 299 286 291 313 334 355 147 200 300 325 326 327 337 333 330 307 275 270 283
123 132 132 138 148 154 155 169 204 220 184 166 174 188 198 218 195 193 258 259 191 174 250 284 306 305 305 315 322 328 262 206 205 271 295 308 325 325 320 309 299 296 296
135 137 138 136 143 162 165 186 220 187 158 159 181 194 198 212 191 202 227 268 215 204 234 236 257 284 295 302 318 335 321 292 247 266 283 306 316 318 316 314 314 316 305
150 146 136 146 176 199 199 202 192 166 156 175 200 193 184 255 285 232 214 212 222 225 229 229 242 264 281 292 305 314 312 323 312 319 338 340 333 328 318 325 328 318 280
161 157 165 177 195 205 210 194 167 154 165 188 207 223 215 215 231 251 238 225 229 218 214 224 217 221 251 258 253 243 249 255 260 319 9 1 352 356 351 342 333 326 318
160 163 176 180 189 194 211 205 178 168 169 192 213 221 223 223 221 238 306 293 247 246 229 227 219 228 237 262 269 251 242 232 186 121 339 315 315 317 319 318 320 318 309